User: anonymous   Login
Location: Banios
(43.0451°N, 0.2335°E)
Time: 12:04:03
(UTC+00:00)
Language:

BREEZE-M (TANK) - Orbit

View from above orbital plane
View from above orbital plane
View from above satellite
View from above satellite

Ground track
Ground track

The orbit data is extracted from the following two-line orbital elements,

1 39124U 13012C   21112.40654153  .00002656  00000-0  42239-3 0  9993
2 39124  49.5531  27.3849 5651737 169.7786 210.0734  4.58675240134027
Epoch (UTC): 22 April 2021 09:45:25
Eccentricity: 0.5651737
inclination: 49.5531°
perigee height: 275 km
apogee height: 17571 km
right ascension of ascending node: 27.3849°
argument of perigee: 169.7786°
revolutions per day: 4.58675240
mean anomaly at epoch: 210.0734°
orbit number at epoch: 13402

The dashed part of the orbit path shows where the satellite is in the earth's shadow,  

DLR